Content
SEND FEEDBACK

Daily
Averages
Monthly
Summary
United States of America

AURELIA, IOWA


Home > North America > United States > Iowa
Elevation: 1354 feet     Latitude: 42 45N     Longitude: 095 31W

WEATHER
 
SELECT A DAY
Number of Records: 202,456;   Date Range: 10/21/04 - 9/19/14
 
SHARE

PRINT THIS DATA

[ ← Previous Day ]
WEATHER ALMANAC - JANUARY 31, 2013
[ Next Day → ]
[ °C ]   °F
Weather ElementAverageHighLow
Temperature3.6 °F8.6 °F (12:35 am)-2.2 °F (11:35 pm)
Dewpoint-10.1 °F-0.6 °F (12:35 am)-14.8 °F (10:35 pm)
Humidity53.5 %66 % (12:35 am)43 % (2:15 pm)
Barometer30.15 in30.36 in (10:35 pm)29.89 in (12:35 am)
Wind Speed13.8 mph21.9 mph (11:35 am)
Wind Gust32.2 mph (1:35 pm)
Weather ElementAverage
Visibility9.2 mi
Wind DirectionWNW (308.6 °)

Weather ElementTotal
Precipitation---
Heating Degree Days61.8 (Base 65)
Averaged from 71 records on January 31, 2013
WEATHER CONDITIONS BREAKOUT
WIND DIRECTION BREAKOUT
WEATHER BY HOUR - JANUARY 31, 2013
[ °C ]   °F
Local TimeTemperatureDewpointHumidityBarometerVisibilityWind DirectionWind SpeedGust SpeedPrecipitationEventsConditions
12:35 AM8.6 °F-0.6 °F66 %29.89 in10.0 miWNW (290°)10.4 mphScattered Clouds
12:55 AM8.2 °F-0.9 °F66 %29.89 in10.0 miWNW (300°)10.4 mph17.3 mphClear
1:15 AM7.7 °F-1.5 °F66 %29.89 in10.0 miWNW (290°)8.1 mph16.1 mphClear
1:35 AM7.5 °F-2.2 °F65 %29.90 in10.0 miWNW (290°)10.4 mphClear
1:55 AM7.3 °F-2.2 °F65 %29.90 in10.0 miWNW (290°)11.5 mphClear
2:15 AM6.8 °F-3.3 °F63 %29.92 in10.0 miWNW (300°)15.0 mph24.2 mphClear
2:35 AM6.3 °F-4.7 °F61 %29.92 in10.0 miWNW (300°)15.0 mph19.6 mphClear
2:55 AM5.9 °F-5.1 °F61 %29.92 in10.0 miWNW (300°)12.7 mph19.6 mphScattered Clouds
3:15 AM5.5 °F-6.2 °F59 %29.92 in10.0 miWNW (300°)13.8 mph20.7 mphScattered Clouds
3:35 AM5.2 °F-6.3 °F59 %29.93 in10.0 miWNW (300°)13.8 mph19.6 mphScattered Clouds
3:55 AM4.8 °F-6.7 °F59 %29.93 in10.0 miWNW (300°)10.4 mph19.6 mphClear
4:15 AM4.6 °F-7.4 °F58 %29.94 in10.0 miNW (310°)11.5 mph20.7 mphClear
4:35 AM4.5 °F-8.5 °F55 %29.96 in10.0 miNW (320°)12.7 mph20.7 mphMostly Cloudy
4:55 AM4.6 °F-8.5 °F55 %29.96 in10.0 miNNW (330°)13.8 mph24.2 mphOvercast
5:15 AM4.1 °F-8.7 °F56 %29.97 in10.0 miNW (320°)16.1 mph19.6 mphOvercast
5:35 AM3.9 °F-9.4 °F54 %29.97 in10.0 miNW (310°)17.3 mph23.0 mphOvercast
5:55 AM3.7 °F-9.2 °F55 %29.97 in10.0 miNW (310°)16.1 mph20.7 mphOvercast
6:15 AM3.6 °F-9.2 °F55 %29.99 in10.0 miNW (310°)11.5 mph23.0 mphOvercast
6:35 AM3.0 °F-9.8 °F55 %30.00 in10.0 miNW (310°)12.7 mph21.9 mphOvercast
6:55 AM3.0 °F-9.2 °F57 %30.02 in10.0 miNW (310°)15.0 mph21.9 mphOvercast
7:15 AM2.8 °F-8.9 °F58 %30.02 in10.0 miNW (310°)12.7 mph19.6 mphOvercast
7:35 AM2.3 °F-9.2 °F59 %30.03 in10.0 miNW (320°)15.0 mph24.2 mphOvercast
7:55 AM2.1 °F-9.4 °F59 %30.04 in10.0 miNW (310°)16.1 mph23.0 mphOvercast
8:15 AM2.3 °F-9.4 °F58 %30.05 in10.0 miNW (320°)17.3 mph25.3 mphOvercast
8:35 AM2.7 °F-8.5 °F60 %30.06 in5.0 miNW (320°)12.7 mph21.9 mphHaze
8:55 AM2.8 °F-8.9 °F58 %30.08 in10.0 miNW (320°)17.3 mph25.3 mphMostly Cloudy
9:15 AM4.1 °F-8.5 °F56 %30.09 in10.0 miNNW (330°)18.4 mph23.0 mphScattered Clouds
9:35 AM3.2 °F-9.8 °F55 %30.11 in5.0 miNW (320°)18.4 mph28.8 mphHaze
9:55 AM3.7 °F-9.6 °F54 %30.14 in5.0 miNW (310°)17.3 mph27.6 mphHaze
10:15 AM3.6 °F-10.8 °F51 %30.14 in10.0 miNW (320°)12.7 mph26.5 mphScattered Clouds
10:35 AM4.1 °F-11.0 °F50 %30.15 in10.0 miNW (320°)15.0 mph25.3 mphScattered Clouds
10:55 AM5.0 °F-9.9 °F50 %30.16 in7.0 miNW (310°)18.4 mph27.6 mphScattered Clouds
11:15 AM4.3 °F-11.9 °F47 %30.17 in7.0 miNW (320°)15.0 mph26.5 mphMostly Cloudy
11:35 AM4.1 °F-12.1 °F47 %30.18 in7.0 miNW (320°)21.9 mph27.6 mphOvercast
11:55 AM4.1 °F-11.0 °F50 %30.19 in5.0 miWNW (300°)20.7 mph28.8 mphHaze
12:15 PM4.3 °F-11.0 °F49 %30.20 in7.0 miNW (320°)16.1 mph27.6 mphOvercast
12:35 PM4.8 °F-11.4 °F47 %30.20 in5.0 miNW (310°)17.3 mph29.9 mphHaze
12:55 PM4.6 °F-11.7 °F47 %30.20 in5.0 miNW (310°)17.3 mph28.8 mphHaze
1:15 PM5.9 °F-11.4 °F45 %30.21 in7.0 miNW (310°)16.1 mph29.9 mphOvercast
1:35 PM6.1 °F-10.3 °F47 %30.21 in7.0 miNW (320°)20.7 mph32.2 mphOvercast
1:55 PM6.4 °F-10.1 °F47 %30.21 in5.0 miNNW (330°)18.4 mph31.1 mphHaze
2:15 PM6.4 °F-11.7 °F43 %30.22 in10.0 miNW (310°)13.8 mph26.5 mphMostly Cloudy
2:35 PM6.4 °F-11.0 °F45 %30.23 in7.0 miNW (310°)18.4 mph29.9 mphOvercast
2:55 PM6.4 °F-11.2 °F44 %30.23 in10.0 miWNW (300°)13.8 mph25.3 mphMostly Cloudy
3:15 PM7.3 °F-10.8 °F43 %30.24 in10.0 miNW (310°)13.8 mph27.6 mphMostly Cloudy
3:35 PM6.6 °F-11.6 °F43 %30.25 in10.0 miNW (310°)16.1 mph25.3 mphMostly Cloudy
3:55 PM6.4 °F-11.7 °F43 %30.25 in10.0 miNW (310°)16.1 mph24.2 mphScattered Clouds
4:15 PM5.9 °F-11.6 °F45 %30.26 in10.0 miNW (310°)17.3 mph26.5 mphScattered Clouds
4:35 PM5.7 °F-11.2 °F46 %30.26 in10.0 miNW (320°)13.8 mph21.9 mphScattered Clouds
4:55 PM5.0 °F-11.4 °F47 %30.27 in10.0 miWNW (300°)16.1 mph25.3 mphClear
5:15 PM4.5 °F-12.1 °F46 %30.27 in10.0 miNW (320°)11.5 mph23.0 mphClear
5:35 PM3.6 °F-11.9 °F49 %30.28 in10.0 miNW (310°)11.5 mphClear
5:55 PM3.2 °F-11.9 °F50 %30.28 in10.0 miNW (310°)15.0 mph20.7 mphClear
6:15 PM2.8 °F-11.2 °F52 %30.29 in10.0 miWNW (300°)10.4 mph19.6 mphClear
6:35 PM2.3 °F-11.7 °F52 %30.30 in10.0 miWNW (300°)12.7 mph27.6 mphClear
6:55 PM1.9 °F-12.3 °F52 %30.31 in10.0 miWNW (290°)15.0 mph20.7 mphClear
7:15 PM1.0 °F-12.3 °F54 %30.32 in10.0 miWest (280°)11.5 mph23.0 mphClear
7:35 PM0.7 °F-13.0 °F53 %30.32 in10.0 miWNW (300°)12.7 mph19.6 mphClear
7:55 PM0.5 °F-13.2 °F53 %30.33 in10.0 miNW (310°)11.5 mph19.6 mphClear
8:15 PM0.1 °F-13.2 °F54 %30.33 in10.0 miWNW (300°)13.8 mph20.7 mphClear
8:35 PM-0.2 °F-12.3 °F57 %30.34 in10.0 miWNW (300°)12.7 mph16.1 mphClear
8:55 PM-0.4 °F-12.5 °F57 %30.34 in10.0 miNW (310°)11.5 mph16.1 mphClear
9:15 PM-0.8 °F-13.7 °F54 %30.34 in10.0 miWNW (300°)8.1 mph19.6 mphClear
9:35 PM-0.9 °F-14.1 °F54 %30.35 in10.0 miNW (310°)9.2 mph21.9 mphClear
9:55 PM-1.3 °F-14.1 °F55 %30.35 in10.0 miNW (320°)6.9 mphClear
10:15 PM-1.5 °F-14.4 °F54 %30.35 in10.0 miWNW (300°)12.7 mph19.6 mphClear
10:35 PM-1.7 °F-14.8 °F54 %30.36 in10.0 miNW (310°)9.2 mph16.1 mphClear
10:55 PM-1.8 °F-14.4 °F55 %30.36 in10.0 miWNW (300°)10.4 mphClear
11:15 PM-1.8 °F-14.8 °F54 %30.35 in10.0 miNW (310°)6.9 mphClear
11:35 PM-2.2 °F-14.8 °F55 %30.36 in10.0 miWNW (300°)5.8 mphClear
11:55 PM-2.2 °F-14.8 °F55 %30.35 in10.0 miNW (310°)6.9 mphClear
Hourly data recorded from KCKP, located miles away from Aurelia, Iowa







STORIES FROM OUR PARTNERS